Terug naar catalogus

STARLINK-32769

ActiefCommunicatieVLEO
NORAD 62602·PAYLOAD·🇺🇸 United States

Gelanceerd Jan 13, 2025 vanaf Cape Canaveral Space Force Station

Loading…

Volgende Passages (komende 24 uur)

TLE

VersSource: CelesTrak SupGP

Epoch: Sep 14, 2026, 20:56 UTC

1 62602C 25008R   26257.87270833 -.00010350  00000+0 -37492-3 0  2576
2 62602  43.0001 289.4181 0001650 268.1319 269.5198 15.27580891    18

Volg STARLINK-32769 in realtime met AllMySat

Download on the App Store